Regional Weather Roundup
Issued by NWS

Home | Current Version | Previous Version | Graphics & Text | Print | Product List | Glossary On
Versions: 1 2 3 4 5 6 7 8 9 10 11 12 13 14 15 16 17 18 19 20 21 22 23 24 25 26 27 28 29 30 31 32 33 34 35 36 37 38 39 40 41 42 43 44 45 46 47 48 49 50
000
ASUS43 KLOT 050412
RWRIL

ILLINOIS REGIONAL WEATHER ROUNDUP
NATIONAL WEATHER SERVICE CHICAGO/ROMEOVILLE IL
1100 PM CDT TUE AUG 04 2015

NOTE: "FAIR" INDICATES FEW OR NO CLOUDS BELOW 12,000 FEET WITH NO
SIGNIFICANT WEATHER AND/OR OBSTRUCTIONS TO VISIBILITY.

* THESE STATIONS ARE NOT UNDER NWS QUALITY CONTROL. THEY ALSO MAY NOT
  REPORT WEATHER SUCH AS PRECIPITATION OR FOG.

ILZ001-002-007-009-015-016-024-050500-
NORTHWEST ILLINOIS

CITY           SKY/WX    TMP DP  RH WIND       PRES   REMARKS
MOLINE         PTCLDY    67  63  87 CALM      30.04R
STERLING*      PTCLDY    64  59  82 CALM      30.02R
SAVANNA*       PTCLDY    63  60  91 CALM      30.04R
$$

ILZ003-004-008-010-011-017-018-050500-
NORTH CENTRAL ILLINOIS

CITY           SKY/WX    TMP DP  RH WIND       PRES   REMARKS
ROCKFORD       MOCLDY    65  57  75 CALM      30.06R
FREEPORT*      PTCLDY    58  55  90 CALM      30.06S
ROCHELLE*      PTCLDY    60  57  91 CALM      30.05S
DE KALB*       PTCLDY    65  56  72 CALM      30.06R
PERU*          PTCLDY    69  61  76 W3        30.04S
$$

ILZ005-006-012>014-019>023-050500-
NORTHEAST ILLINOIS

CITY           SKY/WX    TMP DP  RH WIND       PRES   REMARKS
CHICAGO-OHARE  PTCLDY    68  57  68 SE5       30.03S
CHICAGO-MIDWAY MOCLDY    74  60  61 E5        30.03R
AURORA         PTCLDY    60  56  86 CALM      30.05R
LANSING*       CLEAR     65  58  78 CALM      30.04R
JOLIET*        CLEAR     63  59  86 CALM      30.03S
WAUKEGAN       PTCLDY    61  58  90 CALM      30.03R
DUPAGE AIRPORT PTCLDY    65  57  75 CALM      30.03S
KANKAKEE*      CLEAR     66  61  82 CALM      30.04S
WHEELING       PTCLDY    67  58  72 CALM      30.04S
MORRIS*        MOCLDY    65  60  85 CALM      30.03R
ROMEOVILLE*    CLEAR     67  54  64 CALM      30.04S
NORTHERLY ISL    N/A     71  58  63 E6          N/A
$$

LMZ740>746-050500-
SOUTHERN LAKE MICHIGAN

STATION/POSITION SKY/WX   TEMP    WIND        PRES    VSBY  WAVE
                          AIR SEA DIR/SP/G                  HT/PER
                          (F)     (DEG/KT/KT) (MB)    (MI)  (FT/S)
HARRISON CRIB              72     110/  8/  9   N/A
BURNHAM HARBOR             71     110/  5/  7   N/A
CALUMET HARBOR             72      50/  6/  8   N/A
BURNS HARBOR               72      90/  6/  7 1017.3R
MICHIGAN CITY              71      80/  6/  7   N/A
MICHIGAN CITY 6N           72 74  150/  4/  6   N/A           1/ 3
ST. JOSEPH                 71 74  200/  6/  6   N/A           1
$$

ILZ025>027-034>036-040-047-049-050-058-095>099-050500-
WEST-CENTRAL ILLINOIS

CITY           SKY/WX    TMP DP  RH WIND       PRES   REMARKS
QUINCY         CLOUDY    71  64  78 E5        30.03R
GALESBURG*     CLEAR     64  63  97 CALM      30.05R
MACOMB*        MOCLDY    68  65  92 N3        30.05S
JACKSONVILLE*  CLOUDY    69  67  93 CALM      30.04R
PITTSFIELD*    CLOUDY    70  66  87 NE3       30.04S
$$

ILZ028>032-037-038-041>044-048-051>054-059>061-050500-
CENTRAL ILLINOIS

CITY           SKY/WX    TMP DP  RH WIND       PRES   REMARKS
PONTIAC        PTCLDY    65  63  93 CALM      30.04S
BLOOMINGTON    MOCLDY    72  64  75 CALM      30.05S
DECATUR        CLOUDY    67  64  90 CALM      30.03R
PEORIA         PTCLDY    71  63  75 CALM      30.04R
LACON*         CLEAR     66  63  90 CALM      30.03R
LINCOLN*       CLOUDY    71  64  77 CALM      30.02S
SPRINGFIELD    CLOUDY    67  64  90 CALM      30.03R
TAYLORVILLE    MOCLDY    64  64 100 CALM      30.03R
$$

ILZ033-039-045-046-055>057-062-063-050500-
EAST-CENTRAL ILLINOIS

CITY           SKY/WX    TMP DP  RH WIND       PRES   REMARKS
CHAMPAIGN      MOCLDY    67  63  87 N3        30.04R
DANVILLE*      MOCLDY    65  62  90 N5        30.01R
RANTOUL*       MOCLDY    73  63  69 N3        30.03S
MATTOON        CLOUDY    69  65  86 N3        30.02R
PARIS*         CLOUDY    67  65  93 CALM      30.04R
$$

ILZ079-100>102-050500-
SOUTHWEST ILLINOIS

CITY           SKY/WX    TMP DP  RH WIND       PRES   REMARKS
ALTON          MOCLDY    71  68  91 CALM      30.01S
BELLEVILLE     CLEAR     76  75  99 NE5       29.99R
CAHOKIA*       CLOUDY    78  71  79 NE6       29.99R HX  80
SPARTA*        CLOUDY    74  71  88 S3        29.99S
$$

ILZ064>066-069>071-074>076-080>082-084>086-088>090-092>094-050500-
SOUTH-CENTRAL ILLINOIS

CITY           SKY/WX    TMP DP  RH WIND       PRES   REMARKS
CARBONDALE     CLOUDY    74  70  87 CALM      29.99R
CAIRO*         CLOUDY    77  71  83 CALM      29.99S
EFFINGHAM*     MOCLDY    69  65  89 CALM      30.02S
MARION         CLOUDY    73  70  88 CALM      30.00R
MT. VERNON     MOCLDY    70  64  83 CALM      30.01S
CENTRALIA*     MOCLDY    71  67  87 CALM      30.01R
SALEM*         MOCLDY    74  69  83 CALM      30.01R
METROPOLIS*    CLOUDY    76  71  86 SE3       30.00S
$$

ILZ067-068-072-073-078-083-087-091-050500-
SOUTHEAST ILLINOIS

CITY           SKY/WX    TMP DP  RH WIND       PRES   REMARKS
LAWRENCEVILLE  MOCLDY    73  68  84 CALM      30.01R
FLORA*         MOCLDY    71  68  90 CALM      30.01R
FAIRFIELD*     FOG       70  70 100 CALM      30.00R VSB 1
HARRISBURG*    CLOUDY    71  71  98 CALM      30.01R
ROBINSON*      MOCLDY    67  66  96 CALM      30.02R
CARMI*         MOCLDY    68  64  86 CALM      30.00S
$$

ABBREVIATIONS USED IN REMARKS
   TC - TEMPERATURE IN CELSIUS
  WCI - WIND CHILL INDEX
   HX - HEAT INDEX
  VSB - VISIBILITY
$$




USA.gov is the U.S. government's official web portal to all federal, state and local government web resources and services.